Wind_Speed
18 18 18 18 18 18 18 18 18 18 18 18 17 17 16 16 15 15 15 15 14 13 13 12 13 14 14 15 15 15 14 15 15 16 18 20 20 19 19 20 20 20 21 21 21 21 21 21 21 21 20 19 18 18 16 15 14 12 10 8 6 6 5 5 4 3 2 4 6 5 2 2 3 2 2 1 2 3 3 3 4 5 5 5 5 4 4 3
18 18 18 17 18 18 18 18 17 17 17 18 18 17 17 17 17 17 17 16 16 16 15 14 14 14 14 15 16 16 16 15 15 16 18 20 21 20 19 20 20 20 21 21 22 23 23 24 23 23 22 21 21 20 18 16 15 13 11 9 7 7 6 5 4 4 4 1 4 3 2 3 3 3 4 3 2 4 3 3 4 5 4 4 4 3 3 4
16 16 16 16 17 17 17 17 17 16 16 17 17 17 17 17 18 17 17 18 17 17 17 16 16 16 15 15 16 16 17 17 15 16 19 20 20 21 21 21 20 21 22 23 23 22 23 24 24 23 23 22 21 20 18 17 15 13 12 10 9 8 7 6 3 5 6 1 3 5 3 3 3 3 4 4 0 3 3 5 5 5 5 5 3 2 2 2
16 16 16 16 16 16 16 16 16 16 15 16 16 16 16 17 17 17 18 18 18 18 18 18 18 18 17 16 16 16 18 16 15 18 19 19 20 21 22 22 21 21 22 23 22 22 21 23 23 23 23 22 21 20 19 17 16 14 13 12 10 8 8 8 5 5 7 2 2 3 1 4 4 1 3 4 2 2 3 4 4 5 4 5 4 2 2 2
16 16 16 16 16 16 16 16 16 16 15 15 15 15 15 16 16 16 18 18 18 18 18 19 19 19 19 18 18 18 18 14 15 20 18 19 21 20 22 23 23 23 23 22 21 21 20 21 23 23 22 22 21 20 18 18 17 15 13 13 11 10 9 8 6 6 7 5 4 3 3 5 5 3 3 3 2 4 5 2 1 2 4 4 4 3 1 2
16 16 16 16 16 16 16 16 17 16 16 16 16 16 15 15 15 16 17 17 17 18 18 19 19 20 20 20 20 20 20 14 16 21 17 19 22 20 21 22 23 24 24 23 22 21 20 20 21 22 22 22 22 20 19 19 19 16 15 15 13 13 12 8 7 8 9 9 6 3 4 7 7 5 4 4 3 3 4 2 1 1 2 3 4 4 3 2
17 17 16 16 17 17 17 17 17 17 17 16 16 16 16 16 16 16 16 16 17 17 18 18 19 20 20 21 21 21 21 16 18 21 18 20 22 21 22 21 23 25 25 26 24 23 22 21 20 22 23 23 23 22 21 21 20 18 16 16 16 15 14 12 9 8 10 10 7 4 7 9 8 6 4 4 4 2 2 2 2 2 1 1 2 4 4 2
18 18 18 17 17 17 17 17 17 17 17 16 16 16 16 16 16 16 16 16 17 17 18 18 19 19 20 21 21 23 21 17 21 23 19 20 21 22 22 22 23 24 26 27 26 25 23 22 22 22 23 23 24 24 24 24 21 19 17 17 18 16 14 13 12 10 11 11 8 7 10 11 8 6 5 5 4 3 1 0 1 1 1 1 2 4 5 4
20 19 19 19 19 18 18 18 18 17 17 17 16 16 16 16 16 16 16 16 17 17 18 18 19 19 20 20 21 22 20 20 24 23 21 22 21 22 22 22 23 24 26 27 28 28 25 24 23 24 24 25 26 26 26 25 22 21 20 20 20 18 15 14 13 12 12 12 9 9 12 12 10 8 7 6 6 4 3 2 1 0 1 1 2 5 6 6
21 21 21 21 21 20 20 20 19 19 19 19 18 18 18 18 18 17 17 17 17 17 18 19 19 20 20 20 22 21 19 22 24 22 24 24 23 23 23 23 24 24 25 26 28 28 28 27 26 27 27 27 27 26 27 26 24 23 23 23 21 18 16 14 13 13 13 12 10 10 12 12 11 11 9 7 6 5 5 3 2 0 0 2 2 5 7 6
23 23 23 23 23 22 22 22 22 21 21 21 21 21 21 21 21 21 21 20 20 19 19 20 20 20 21 21 22 21 20 22 21 21 24 25 25 25 24 23 24 25 26 27 28 28 30 30 30 30 28 27 26 27 27 25 25 25 25 23 20 18 16 14 14 14 14 13 11 11 13 13 12 12 11 9 7 7 6 4 3 0 0 1 3 5 7 7
25 25 25 25 25 24 24 24 24 24 24 24 24 23 23 23 23 23 23 23 23 23 22 22 22 22 22 22 22 22 21 21 20 22 23 25 26 26 26 25 25 25 26 27 28 28 30 31 32 31 29 29 29 28 28 26 25 25 24 22 19 18 16 15 15 16 15 14 13 12 13 13 13 14 12 9 8 7 6 5 3 1 1 1 3 4 6 8
27 27 26 26 26 26 26 26 26 26 26 26 25 25 24 24 25 25 25 25 25 25 25 25 24 25 24 24 24 23 22 21 22 22 23 25 26 27 28 28 27 26 27 28 29 29 30 31 32 32 32 32 30 30 30 27 26 25 24 22 20 18 17 16 16 16 16 15 14 13 13 13 14 17 13 9 9 8 7 6 4 3 2 2 3 4 6 8
28 28 28 28 28 28 28 28 28 28 28 27 27 27 26 26 26 26 26 26 27 27 27 27 26 27 27 26 26 26 24 23 23 22 23 25 26 27 28 29 29 28 28 28 29 30 30 31 31 32 34 33 30 31 30 27 27 25 24 23 20 18 17 16 17 18 17 17 16 14 14 14 15 18 15 11 11 9 9 9 6 4 3 4 4 5 7 8
29 29 29 29 29 29 29 30 30 30 30 29 29 29 28 28 28 28 28 27 27 27 27 27 28 28 29 28 28 28 27 26 25 24 25 25 26 27 28 30 30 30 30 30 30 30 31 31 31 31 32 33 33 33 30 28 26 26 26 23 20 19 17 18 19 19 18 18 18 15 15 15 16 19 17 13 12 12 11 11 8 6 5 5 5 5 7 7
30 31 31 31 31 31 31 31 32 32 32 32 31 31 31 30 30 30 30 29 29 27 27 27 27 27 29 29 29 30 30 29 27 26 26 26 27 28 28 29 30 31 32 31 31 30 31 32 31 32 32 34 34 32 32 31 28 27 27 23 21 20 18 18 20 20 19 19 19 16 16 17 17 19 18 13 13 14 14 13 10 8 7 6 6 5 6 6
32 32 32 33 33 33 33 33 33 34 34 34 34 33 33 33 33 33 33 32 31 30 29 28 27 27 29 28 29 31 31 31 30 29 28 28 29 29 28 29 30 31 33 33 33 32 33 32 32 32 33 33 32 33 36 33 28 26 27 25 22 21 19 18 18 19 21 20 19 18 16 18 18 19 18 13 15 17 17 14 11 11 10 8 7 6 5 5
33 33 33 34 34 34 35 35 35 35 35 35 35 35 35 35 35 35 35 34 34 34 32 31 30 30 31 29 29 31 31 32 32 32 31 30 30 30 30 31 31 32 33 35 35 34 34 33 33 33 34 34 33 33 34 29 26 26 28 26 24 23 21 20 15 13 22 20 17 20 19 19 19 19 19 15 17 20 18 14 13 13 12 10 8 7 6 6
33 33 33 34 35 35 36 36 36 36 36 36 36 36 36 37 37 37 36 37 36 36 35 34 32 33 33 31 31 32 32 33 33 33 33 33 32 32 32 33 33 32 33 34 35 36 36 35 35 35 34 32 30 29 28 26 27 29 30 28 27 27 25 23 16 11 20 21 16 20 20 20 20 20 21 17 17 20 19 16 15 14 13 11 9 8 7 6
33 33 33 34 34 35 36 36 37 37 37 37 37 37 37 38 38 37 36 37 37 36 36 35 34 35 36 33 32 34 34 34 34 35 35 35 34 34 34 35 35 35 34 34 35 36 37 38 38 35 30 27 27 29 28 28 30 32 32 28 26 28 28 26 20 17 19 23 19 20 22 22 21 20 21 19 17 20 20 18 17 16 14 11 10 9 8 7
33 33 33 33 33 34 35 36 36 36 36 36 36 37 37 37 37 36 34 35 35 34 35 36 35 36 36 35 34 35 36 36 36 36 36 36 36 37 36 36 37 37 36 36 36 37 39 41 40 33 27 27 30 31 30 31 32 33 35 33 26 26 28 27 23 18 19 23 19 17 22 23 22 22 22 21 18 18 20 19 18 17 15 13 12 12 10 8
33 33 33 33 33 33 34 34 34 34 34 33 33 34 34 33 33 33 32 31 31 32 33 33 34 35 34 35 36 36 37 37 38 38 38 38 38 39 39 38 39 39 38 38 38 39 40 41 39 33 30 31 32 32 33 33 33 34 36 38 35 31 28 25 24 20 18 23 25 20 22 23 23 24 23 23 22 20 21 21 20 16 15 15 15 14 12 8
32 33 32 32 31 31 31 32 31 31 30 29 28 28 27 27 27 26 27 27 26 26 28 29 30 32 32 33 34 35 37 37 39 39 38 40 41 42 41 40 40 41 41 41 41 41 41 39 36 32 33 35 34 33 35 35 35 36 36 37 38 35 28 21 21 21 20 23 27 22 21 22 24 26 25 25 24 24 24 22 21 18 16 18 18 16 13 9
30 30 29 29 28 28 27 28 28 25 24 23 21 20 20 20 20 20 21 22 22 21 22 25 26 28 29 30 31 33 34 35 39 39 37 40 43 44 43 43 43 42 43 43 43 43 42 39 34 34 36 37 37 36 36 36 35 37 36 35 36 35 33 24 16 18 23 24 23 20 19 20 22 26 27 27 25 25 25 23 23 20 18 19 19 19 15 10
27 27 26 26 25 25 23 23 22 19 17 16 15 15 16 16 15 16 17 19 20 18 18 23 24 25 26 27 28 30 31 33 37 38 37 39 43 45 45 45 45 45 45 45 45 45 43 40 36 36 38 39 39 38 37 36 36 37 36 34 36 34 35 32 22 16 24 26 23 24 23 18 17 20 24 26 26 25 25 27 26 21 20 21 20 19 17 13
25 25 25 24 22 22 19 17 17 16 14 13 14 14 15 16 14 15 16 18 20 18 18 22 23 24 25 25 25 26 29 31 33 35 35 38 42 44 46 46 46 46 46 46 47 47 46 43 40 39 40 40 41 42 40 38 38 39 37 34 36 36 36 38 33 26 23 24 23 27 29 24 22 21 20 23 27 27 27 29 28 24 22 22 20 19 17 14
23 23 23 21 19 18 17 15 14 15 14 14 16 17 18 18 18 18 18 21 23 20 19 20 22 23 23 23 22 23 26 28 28 31 33 35 39 42 44 45 45 45 46 47 49 49 48 45 42 42 42 42 43 44 43 41 40 39 36 34 35 36 37 39 40 38 32 27 26 26 32 35 37 32 25 25 26 26 28 29 28 27 25 23 20 20 19 15
22 22 20 18 16 15 15 15 15 15 16 16 18 19 19 19 18 17 18 21 23 21 19 20 21 23 25 24 23 22 24 24 26 28 27 30 36 39 40 43 45 45 46 48 49 48 49 48 46 44 44 45 45 45 43 43 43 39 34 34 37 39 39 39 42 45 41 36 34 31 28 31 36 35 31 29 27 25 26 29 30 29 27 25 21 21 22 17
21 20 18 16 14 14 15 16 17 17 18 19 19 18 18 16 15 14 15 17 18 18 18 19 19 21 24 25 24 24 23 23 24 24 22 25 30 33 36 40 43 45 48 51 51 49 46 46 47 47 48 47 44 45 45 44 44 41 37 38 40 42 44 42 42 45 46 45 42 40 35 27 27 32 34 32 30 28 27 28 31 30 28 27 23 22 22 20
20 18 17 16 14 15 15 17 19 18 19 19 18 17 16 15 14 13 13 15 15 15 16 18 19 19 20 21 23 22 22 23 23 22 22 23 25 28 31 36 40 42 46 50 53 52 48 46 48 51 50 48 46 46 44 43 46 45 41 40 41 44 49 46 45 44 47 52 51 48 44 31 26 29 31 33 32 30 29 29 30 29 29 28 24 24 24 21
19 17 16 16 15 16 16 17 19 19 19 18 17 17 15 15 15 14 15 16 15 15 17 17 16 17 17 19 22 21 20 22 21 20 20 21 23 24 25 27 30 36 41 45 49 51 51 51 53 55 52 49 50 49 47 48 51 49 44 42 42 46 49 47 46 47 49 52 51 51 50 43 37 31 23 28 34 32 27 27 30 29 29 29 26 25 25 24
19 17 16 17 16 17 17 18 18 19 19 18 18 17 16 16 15 15 16 15 13 14 13 11 12 16 17 16 20 22 20 21 20 19 18 18 19 16 16 18 21 30 36 38 41 43 47 51 51 54 53 52 53 52 51 53 51 47 46 45 44 45 48 48 47 48 50 51 47 47 48 49 49 39 25 22 29 35 31 22 25 30 31 35 32 25 25 27
18 17 17 17 17 17 19 19 18 18 18 17 17 17 16 15 13 12 14 18 18 16 15 14 15 19 18 18 23 22 19 21 21 19 17 17 17 12 14 21 23 27 30 29 29 28 35 46 50 51 48 49 56 56 53 53 49 47 49 50 49 46 46 49 49 48 49 48 45 45 46 49 50 45 38 27 17 24 31 24 23 29 31 35 32 25 29 32
18 18 17 17 18 18 20 19 18 17 16 16 16 15 14 12 11 9 13 21 21 17 19 19 17 19 19 20 25 22 19 24 24 22 19 17 17 12 15 23 23 24 27 28 29 24 23 30 41 50 48 44 51 56 54 50 45 48 52 51 51 51 47 45 46 47 47 46 44 44 48 50 48 45 45 41 27 18 21 25 30 31 28 31 31 27 33 35
18 17 17 17 18 19 20 19 17 15 15 14 13 13 11 10 12 15 18 20 19 17 20 19 17 19 19 21 25 23 23 27 27 23 22 19 15 13 19 25 23 22 26 28 31 32 30 23 18 30 40 41 45 51 54 50 41 43 52 52 52 53 51 46 41 38 37 41 44 45 48 50 48 44 42 45 45 35 26 24 28 31 31 33 32 29 32 34
17 17 18 18 18 19 20 18 17 15 13 13 12 11 11 13 17 21 22 20 19 19 18 18 19 18 17 18 22 25 25 27 29 24 22 22 19 19 26 28 25 24 24 25 28 32 37 35 24 15 23 30 33 40 49 52 44 37 42 50 54 52 50 48 45 36 29 32 37 37 40 43 45 47 44 43 47 46 42 32 24 26 33 36 34 29 27 30
18 17 18 19 19 19 19 17 16 14 13 13 11 10 11 13 16 18 19 19 19 18 16 18 20 20 18 9 10 26 23 15 24 27 21 20 21 25 31 32 30 28 24 23 25 28 35 39 36 27 20 22 24 27 37 48 49 36 27 35 47 50 49 48 46 41 33 31 31 27 28 33 39 44 45 44 44 45 47 39 26 25 33 39 39 35 29 29
19 17 18 19 18 18 18 16 15 14 13 12 11 12 13 14 13 13 15 16 17 17 16 19 21 22 20 11 14 28 21 8 18 26 17 14 19 28 34 34 34 32 27 24 24 27 32 36 36 32 23 21 24 26 29 40 51 47 30 23 31 39 44 49 50 46 37 30 27 25 24 26 31 36 39 43 44 43 44 42 37 34 33 34 35 34 31 32
21 18 17 18 17 17 17 16 15 13 12 11 11 13 13 12 11 11 13 14 16 17 18 21 22 20 16 14 21 26 21 15 20 21 16 16 22 30 34 33 34 34 32 29 28 28 30 34 37 38 30 22 22 24 26 30 40 50 44 31 28 29 30 38 50 52 44 31 23 22 23 24 24 25 28 35 41 42 40 41 43 44 40 37 35 31 29 31
23 20 18 17 17 17 16 16 14 13 12 11 11 12 11 10 10 10 13 14 16 18 19 19 21 20 17 19 23 23 26 28 21 18 20 19 22 29 32 34 34 33 33 32 32 33 34 35 37 38 36 31 25 20 22 25 27 37 47 43 36 33 27 26 37 48 51 41 27 21 22 24 22 19 20 27 34 40 39 36 39 42 44 44 44 40 35 32
24 22 19 18 18 18 17 15 14 12 11 12 12 11 11 11 11 12 14 15 16 17 18 18 20 21 20 22 24 22 27 29 21 21 25 18 21 31 33 34 33 30 31 31 34 39 41 42 39 38 40 40 31 18 17 23 23 26 36 42 41 37 30 24 27 37 47 48 38 23 18 19 18 17 23 25 24 29 36 36 36 36 38 41 43 43 39 36
23 21 19 18 18 18 17 14 12 11 10 10 10 10 10 11 11 12 12 14 15 14 16 20 18 18 21 23 22 22 24 24 21 23 22 16 23 34 36 35 32 29 29 30 34 41 44 45 43 40 43 46 40 26 21 25 26 27 29 35 41 37 28 24 25 26 34 44 45 32 21 16 12 14 20 18 12 15 22 31 37 36 33 35 39 40 38 38
21 18 16 16 17 17 15 13 10 9 9 8 9 8 9 9 9 10 9 9 12 13 15 17 14 15 20 19 17 20 23 24 23 23 22 20 27 35 36 37 35 32 33 34 35 37 39 42 45 43 43 47 47 39 31 26 25 33 38 39 42 40 30 25 23 21 25 33 41 40 32 21 14 17 19 15 15 15 12 18 29 30 29 30 33 34 33 35
18 16 13 13 14 13 12 11 10 9 8 8 7 5 6 6 5 6 7 5 7 10 12 14 11 13 17 15 13 20 24 23 23 25 25 26 31 35 35 39 41 38 39 41 40 37 36 40 45 46 44 44 47 46 40 32 30 39 45 47 48 44 35 29 25 25 27 28 30 38 41 30 18 21 25 21 17 14 8 10 16 19 22 24 23 25 29 31
16 15 14 12 11 11 10 10 9 8 7 7 7 7 6 7 6 5 7 6 5 7 9 12 12 11 15 15 14 18 22 23 25 28 28 29 32 34 33 38 43 42 41 42 42 41 41 42 44 48 47 45 45 46 47 43 40 42 45 49 52 45 35 34 33 32 32 31 29 33 39 37 28 24 27 23 13 11 14 18 19 20 21 23 25 28 31 30
13 13 13 11 10 10 10 9 9 9 9 8 9 9 10 10 10 9 10 10 9 8 8 11 12 12 14 16 15 18 21 23 25 27 29 29 31 33 35 37 40 40 38 35 36 40 44 44 45 47 48 48 46 46 49 49 47 45 48 53 54 44 36 37 38 37 35 34 36 35 31 33 34 30 30 26 20 22 25 22 22 27 30 32 35 35 35 35
12 11 11 9 9 9 9 10 10 9 9 9 10 10 11 12 13 12 12 12 12 11 10 11 12 13 15 16 18 20 21 23 25 26 29 30 30 32 35 36 37 37 34 30 31 36 40 42 46 48 47 46 46 49 51 52 52 50 50 56 55 46 41 45 46 43 38 36 40 40 34 34 37 35 32 34 34 35 34 26 24 31 35 38 40 39 40 41
11 11 9 7 9 10 10 10 10 9 9 9 10 10 11 12 13 13 13 13 13 12 12 12 13 14 17 18 20 22 23 25 26 27 29 30 28 28 31 34 36 35 32 29 29 33 38 41 44 48 49 47 46 49 52 53 56 54 51 55 59 52 47 52 53 47 42 42 41 43 41 39 41 39 35 37 41 42 41 37 33 32 31 33 39 43 44 44
10 9 7 7 8 9 10 10 10 10 9 9 10 10 11 13 13 13 13 12 12 11 12 13 13 14 17 19 20 22 24 25 26 27 27 27 26 28 30 32 33 33 30 28 26 28 35 40 41 46 50 51 50 51 53 56 59 60 55 54 60 59 54 55 56 49 45 47 45 47 48 42 39 41 38 36 37 37 38 40 40 41 35 32 39 46 48 48
10 9 7 6 6 7 9 9 9 9 8 8 9 11 12 13 14 13 13 13 12 11 11 11 12 13 16 18 20 22 23 24 25 25 25 25 25 26 28 29 29 29 27 26 26 27 30 34 38 43 48 54 57 55 54 54 55 59 58 56 58 60 58 56 56 53 48 47 48 53 54 45 37 40 43 41 37 35 37 39 41 44 42 37 40 45 48 51
11 11 9 7 6 6 7 8 8 8 7 8 10 12 13 13 14 14 13 13 12 11 12 11 12 13 15 17 19 20 21 21 21 21 22 23 23 24 26 27 27 27 24 23 26 28 27 27 32 38 43 51 56 56 56 53 52 56 60 58 57 57 58 57 55 54 51 48 48 53 57 50 39 41 47 48 45 42 43 43 42 45 46 44 43 44 46 50
12 12 11 9 7 6 7 8 9 9 8 9 10 11 13 13 14 14 13 14 13 12 12 12 12 13 14 15 17 18 19 19 19 20 21 22 22 24 27 26 25 24 22 20 23 25 25 26 28 32 37 45 50 54 56 52 53 60 61 56 53 53 58 59 57 54 53 54 56 58 61 55 42 42 49 52 53 53 48 46 46 46 48 48 45 43 42 45
Wind_Direction
287 286 285 284 284 282 281 279 277 277 276 275 274 272 270 267 264 263 263 262 261 259 259 258 256 252 250 250 251 247 239 232 228 228 229 229 227 222 217 219 218 219 222 221 220 220 216 215 217 218 222 226 230 231 232 235 235 228 220 229 240 231 239 253 254 215 228 295 254 255 325 319 327 337 315 319 114 100 106 132 150 149 167 187 197 202 165 133
288 287 286 285 284 283 281 279 278 276 275 274 273 272 270 269 266 264 263 261 259 257 256 256 256 255 251 249 250 250 247 240 232 230 231 230 229 225 222 221 221 223 226 224 222 220 217 215 214 215 219 223 228 231 231 234 235 232 221 222 231 231 251 266 269 234 215 289 240 235 312 287 315 321 304 314 114 110 126 161 155 156 178 192 215 229 180 136
289 288 287 286 285 284 283 282 280 278 276 274 273 272 270 269 267 266 265 263 260 258 256 254 253 253 253 251 249 249 249 245 239 234 232 231 230 228 225 223 221 223 227 227 226 225 222 218 214 214 217 220 227 231 233 236 237 237 229 224 227 227 249 264 272 242 223 334 270 210 196 265 301 320 308 304 358 102 157 185 168 171 185 191 203 230 223 161
291 290 288 287 285 284 283 283 281 280 278 276 274 272 270 269 268 267 266 265 263 261 257 254 252 251 251 251 250 249 247 247 247 241 235 233 232 229 228 224 221 222 227 230 229 229 229 225 218 216 217 219 225 232 236 240 239 240 236 229 230 227 243 255 254 240 225 270 294 195 153 280 281 280 273 281 330 348 243 201 175 168 171 188 185 182 246 233
290 289 289 287 286 285 284 283 282 282 281 279 277 275 273 271 269 268 267 266 265 263 260 257 254 252 250 250 249 249 248 245 248 245 238 237 235 230 230 227 222 222 226 231 232 230 231 229 224 219 218 218 223 228 235 240 239 240 240 235 233 233 245 251 245 257 255 259 289 354 352 280 267 242 245 271 322 305 279 247 196 143 150 179 178 166 210 257
288 287 287 286 285 285 284 283 283 283 282 281 280 279 277 275 272 270 268 267 266 265 263 261 257 254 251 250 248 248 247 240 245 247 240 240 239 232 231 229 225 223 225 229 232 231 230 228 226 222 220 220 221 224 230 236 237 237 240 241 237 235 245 253 247 254 258 256 268 307 284 259 255 236 230 263 262 284 299 294 324 41 133 176 190 182 170 227
284 284 283 282 282 281 282 281 281 281 280 280 280 279 278 277 276 273 271 269 268 266 265 264 261 258 255 252 249 247 246 239 245 249 241 241 242 237 232 230 228 225 225 228 229 230 229 226 224 222 222 221 220 221 226 232 233 233 236 239 238 238 240 244 247 247 247 254 259 258 258 254 252 241 220 236 258 286 335 327 344 16 135 176 220 200 159 166
278 278 277 276 275 275 276 276 276 276 276 276 275 276 276 275 275 274 273 271 269 267 266 265 264 262 258 256 252 249 247 239 242 246 243 243 244 241 236 232 230 228 227 227 227 228 227 226 223 222 221 221 221 220 223 228 229 230 232 234 238 243 242 238 241 243 242 248 251 250 256 254 249 250 228 205 226 249 218 313 359 360 275 189 217 209 173 165
275 274 273 272 270 269 269 269 270 269 269 269 269 269 269 269 269 269 270 270 270 268 267 265 264 263 261 259 256 253 249 241 241 245 245 244 244 245 241 235 233 230 230 228 228 228 227 226 225 224 221 220 221 220 223 227 227 228 230 231 232 237 241 240 240 240 240 242 244 246 251 252 244 241 237 213 208 220 205 169 148 351 290 263 198 208 209 192
274 273 272 270 269 268 268 267 266 265 265 265 264 264 264 264 264 264 265 266 267 267 267 266 264 263 261 261 258 256 252 246 244 244 245 244 244 245 243 240 236 234 232 230 229 228 227 226 225 226 224 222 221 221 224 226 227 228 229 230 228 230 236 241 243 243 244 244 246 248 250 252 250 244 242 234 214 214 214 171 147 157 15 286 221 204 225 220
275 274 273 271 270 269 269 267 266 265 264 264 264 263 262 262 262 262 262 263 263 264 265 265 265 264 263 261 260 257 252 250 248 245 245 244 243 244 244 242 240 237 234 232 231 228 228 226 225 227 226 226 225 224 227 227 228 230 232 234 232 231 234 237 241 243 245 247 249 250 249 248 251 249 241 239 226 211 213 181 150 241 331 285 253 213 224 230
276 275 274 273 272 271 270 269 268 267 266 265 264 263 263 262 262 262 261 261 260 261 261 262 263 264 264 263 262 259 254 253 251 247 246 245 242 242 242 242 241 240 237 235 233 231 229 227 227 228 227 227 226 226 227 226 229 233 235 237 237 235 233 233 237 242 244 246 247 247 250 247 246 247 240 241 238 212 205 202 178 212 257 265 262 238 225 225
279 277 275 274 273 272 271 270 269 268 267 265 264 264 264 264 263 263 262 260 259 259 259 259 260 261 262 262 263 261 257 254 251 248 247 246 244 242 241 241 240 240 240 237 235 233 232 230 228 228 229 228 227 229 228 226 228 232 235 236 236 235 234 235 237 242 244 246 247 245 248 246 244 246 240 234 241 223 206 211 204 215 248 254 251 246 227 224
281 280 278 276 275 273 273 272 270 269 267 266 265 265 265 265 265 265 264 263 261 260 259 258 258 259 259 259 260 260 258 256 252 248 247 247 246 244 242 241 239 239 240 239 237 235 234 233 230 229 230 231 230 232 232 230 230 232 235 235 235 235 234 236 238 242 246 248 250 247 244 243 245 250 242 232 240 232 215 210 208 221 242 248 243 244 234 231
283 282 281 280 278 277 276 275 273 271 269 268 267 266 266 265 265 265 265 264 263 261 260 260 259 258 257 257 257 258 257 255 253 249 247 247 246 245 243 241 239 238 239 239 239 238 237 235 233 231 232 231 231 233 234 234 233 234 237 237 236 236 234 237 242 245 247 251 253 247 243 239 240 249 243 234 240 235 223 212 206 216 227 239 242 241 242 244
284 284 283 282 282 280 279 278 276 274 272 271 270 269 268 267 266 266 265 264 263 262 261 260 259 258 257 255 254 255 254 253 252 251 248 246 246 245 244 244 242 240 238 239 239 239 238 236 234 232 232 231 231 232 233 232 232 234 238 239 238 237 234 239 246 248 247 251 256 249 245 241 237 245 244 238 241 234 224 214 205 212 217 228 238 238 244 247
286 285 285 284 283 281 280 279 278 276 275 273 272 271 270 269 268 267 266 265 263 263 262 261 260 259 257 255 254 253 252 251 250 250 249 247 246 245 245 244 242 241 239 238 238 238 239 238 235 233 233 233 232 231 231 230 230 234 239 240 239 241 236 236 245 258 255 246 251 250 243 244 241 242 243 239 241 232 223 217 205 208 213 218 230 232 242 241
287 286 285 284 283 281 280 279 277 276 275 274 273 273 272 271 270 269 267 265 264 263 263 262 262 260 257 255 254 253 252 252 250 248 248 247 247 246 244 243 242 241 240 238 237 237 239 239 237 235 232 232 231 232 233 233 233 236 240 239 240 243 240 238 235 259 267 251 240 247 243 243 243 245 243 235 236 230 220 218 213 211 211 212 226 228 233 242
286 285 284 283 282 281 279 277 276 275 274 273 272 272 272 271 270 269 267 265 264 264 263 263 263 262 259 256 255 255 253 252 251 248 247 246 246 245 244 243 243 242 241 240 239 238 238 238 238 236 233 233 235 237 236 234 231 230 234 235 238 239 238 241 224 214 261 259 232 236 243 242 240 245 246 240 239 233 219 214 214 216 216 211 218 226 228 237
285 283 282 281 280 279 277 276 275 274 273 272 272 271 271 270 269 267 266 264 263 263 264 263 262 263 262 259 256 256 254 252 251 249 246 245 244 244 243 243 243 242 241 241 240 238 238 238 238 238 236 235 236 236 233 231 229 227 227 227 235 242 237 238 229 204 233 258 250 238 240 240 238 241 246 248 245 237 230 222 214 213 218 219 218 221 227 230
285 283 282 280 279 278 277 276 275 274 272 272 272 271 269 268 267 265 262 263 263 264 264 264 263 263 264 263 259 256 255 252 250 248 246 244 243 242 242 241 242 241 240 240 239 238 238 237 237 236 235 233 232 231 229 229 229 227 224 221 223 235 236 233 233 216 220 248 252 235 236 238 237 238 240 245 240 231 236 234 224 220 220 226 224 218 221 227
286 284 283 282 281 280 279 278 276 275 274 273 272 271 269 266 265 264 261 262 263 263 264 264 263 263 262 261 259 256 254 251 249 246 244 242 241 240 239 239 240 240 239 238 238 238 238 238 237 234 233 232 231 230 229 228 228 228 226 225 222 222 228 229 228 219 214 239 246 238 246 248 239 236 234 238 237 234 240 238 229 227 224 228 229 221 217 218
287 285 284 283 283 283 282 280 278 277 276 274 272 270 269 267 267 267 265 265 265 264 264 262 261 261 260 258 257 255 253 251 249 244 241 240 238 238 238 236 238 238 237 237 238 238 238 238 237 234 232 232 230 229 230 228 227 229 227 229 230 225 223 223 224 223 212 232 250 247 246 246 236 235 232 230 235 237 239 237 230 223 217 224 231 228 219 217
289 287 285 285 285 285 284 282 280 278 276 274 274 274 276 276 278 277 275 274 273 269 266 263 262 261 259 258 256 255 253 251 249 245 240 238 236 236 237 234 234 236 236 236 237 238 238 236 234 232 231 231 230 228 229 229 228 230 229 227 231 227 224 218 213 235 230 223 242 247 238 242 236 235 235 230 230 235 236 237 233 225 219 222 229 230 222 219
291 290 289 289 289 288 287 284 280 276 273 274 278 283 286 287 291 290 285 280 276 271 266 265 265 264 263 262 261 259 256 253 251 247 240 237 236 236 234 233 232 233 233 234 235 236 237 234 230 230 230 229 229 228 228 229 228 230 229 227 230 225 223 218 193 211 238 221 224 240 235 234 230 227 237 235 229 228 235 243 238 227 226 227 226 229 229 228
294 294 293 293 292 291 288 283 279 276 273 277 282 283 284 286 287 286 283 278 273 268 263 265 268 267 266 266 266 265 262 258 256 252 244 240 237 235 234 232 231 231 232 232 232 233 235 234 229 228 228 228 228 228 226 227 227 228 226 224 229 227 221 218 198 194 223 212 212 243 247 244 239 226 226 232 231 227 229 241 242 232 229 232 231 231 233 236
298 298 296 294 293 292 288 283 277 276 278 282 283 282 281 279 277 275 274 272 272 270 265 266 270 270 268 269 269 267 266 264 261 256 250 244 240 236 236 234 230 228 229 230 231 231 232 231 229 228 227 226 227 227 225 225 226 227 226 221 225 229 224 221 213 206 210 202 202 237 257 256 245 234 227 228 234 237 231 232 239 239 233 230 233 235 235 234
301 300 296 293 293 292 292 289 283 282 283 281 280 280 279 276 273 272 270 268 272 276 274 269 268 269 270 271 271 269 269 270 265 259 254 250 245 239 237 235 231 227 226 227 228 229 231 230 228 229 229 227 227 227 225 225 227 224 224 222 221 226 225 222 222 219 215 207 200 209 232 245 238 229 230 231 230 233 230 227 234 241 240 233 229 232 237 234
302 298 293 293 296 297 296 293 289 287 284 281 280 279 276 274 271 271 270 269 274 280 282 278 272 270 271 270 269 267 266 266 265 263 258 254 248 242 240 237 233 229 226 225 224 224 227 228 227 227 228 228 227 229 227 224 227 224 219 222 221 224 225 221 222 224 222 218 210 208 214 229 237 228 225 229 231 229 228 230 236 241 243 239 231 232 239 239
301 296 292 294 298 300 297 294 290 287 284 283 282 281 279 272 271 275 274 270 277 283 281 280 279 276 274 272 267 263 262 262 264 263 260 256 252 246 243 239 235 233 230 228 226 224 223 223 222 223 226 227 226 227 228 226 226 224 219 221 223 225 226 224 221 222 224 224 221 218 216 217 230 232 228 231 232 236 239 236 233 237 243 241 234 234 240 240
301 294 291 294 297 297 296 294 292 290 288 284 282 283 281 273 273 276 271 272 281 282 274 275 281 278 271 269 267 265 261 260 262 261 259 255 254 252 250 246 240 235 232 231 230 228 226 225 223 222 221 224 226 223 223 225 224 222 219 220 224 228 229 227 225 223 226 229 227 227 226 224 225 224 229 238 234 232 238 240 235 232 237 243 239 233 236 240
304 296 293 294 296 297 298 298 296 293 291 286 282 281 279 277 275 271 269 269 271 276 277 277 272 268 268 265 266 266 261 260 258 254 255 256 256 258 254 247 238 232 229 230 233 231 229 229 228 227 223 220 224 223 220 224 224 221 220 220 222 229 231 228 228 229 231 233 232 233 235 235 235 229 222 238 244 235 229 240 254 246 238 244 245 235 233 238
307 300 297 295 295 299 303 304 300 297 296 291 284 278 276 274 269 266 267 262 263 274 282 275 264 265 268 261 262 263 258 257 255 248 250 251 250 253 253 248 240 235 229 222 227 230 230 230 229 229 228 222 222 223 222 224 225 221 221 221 221 224 229 230 228 229 233 236 235 236 237 239 241 237 227 225 236 241 231 224 244 251 243 242 241 231 231 235
311 304 300 297 298 303 307 307 303 301 301 297 288 277 270 262 252 251 259 264 270 274 272 271 269 268 263 256 263 268 258 254 253 247 246 248 248 246 248 251 245 238 234 226 223 220 218 229 232 230 230 229 226 225 223 223 225 225 223 222 222 223 225 230 232 233 234 237 237 237 238 239 239 238 234 228 221 226 229 220 230 241 242 242 238 227 230 235
314 308 305 303 305 308 308 308 304 302 304 301 291 274 258 239 236 240 247 262 273 271 268 271 269 267 263 259 263 265 257 255 253 246 243 246 245 236 241 252 251 242 239 234 229 223 212 206 225 238 237 236 235 231 225 219 217 226 228 224 223 225 226 226 230 235 238 239 240 240 240 241 241 240 237 235 231 228 225 221 228 233 231 236 240 234 233 234
318 314 311 309 310 310 309 308 303 303 305 301 292 275 252 230 233 242 248 261 272 272 271 271 265 261 263 269 271 265 254 249 254 253 248 247 245 246 252 255 256 252 246 238 233 232 223 202 181 207 236 237 238 237 231 222 214 220 232 229 224 225 228 228 228 229 231 236 239 242 245 244 243 242 239 237 237 236 236 232 224 228 233 235 234 232 235 240
322 320 316 314 313 311 311 310 305 303 301 297 291 277 260 245 244 251 257 263 269 271 267 264 262 256 252 250 270 273 264 236 247 257 251 250 251 250 252 252 251 250 248 245 237 235 235 218 192 186 207 217 221 228 232 225 216 213 226 232 229 227 226 225 226 225 223 228 232 233 240 244 246 245 241 240 239 237 239 236 219 222 244 247 238 229 230 242
320 321 319 315 313 313 313 312 308 303 298 297 288 270 262 256 256 260 263 265 269 268 257 254 259 263 258 216 215 262 272 207 235 253 240 234 249 249 248 250 252 250 244 244 242 236 238 232 210 194 196 205 206 215 228 226 218 212 210 219 229 233 231 226 224 222 220 225 232 231 232 240 249 251 247 245 244 241 239 236 223 216 229 243 239 229 226 236
319 319 317 312 311 315 316 314 310 303 297 292 280 272 269 264 263 266 266 268 268 264 256 255 262 267 263 237 230 254 266 239 239 255 241 228 245 253 253 252 251 251 247 242 241 241 240 237 222 202 196 197 199 209 221 224 221 214 208 204 209 220 230 232 229 225 221 221 226 231 230 231 235 248 259 255 248 245 241 237 235 227 224 233 240 235 231 238
321 321 320 314 312 318 321 318 313 305 297 286 278 279 282 278 275 273 269 267 263 263 262 261 263 260 252 254 251 245 251 256 255 257 257 252 254 257 257 255 253 251 249 243 240 239 238 240 230 211 203 200 194 202 211 216 226 220 210 205 204 204 207 225 233 229 224 220 217 221 229 233 230 230 246 254 252 250 244 237 239 238 234 238 244 245 243 243
324 324 323 317 315 321 324 321 314 306 299 290 285 285 283 282 281 275 270 268 265 267 268 262 259 258 254 259 261 251 254 266 268 257 258 258 256 257 257 256 256 252 249 244 240 237 233 236 232 216 208 204 196 194 205 210 218 222 215 210 209 207 202 210 226 228 226 221 215 212 215 231 243 237 239 251 263 263 253 243 240 241 240 242 248 250 248 245
326 325 323 319 321 325 325 323 318 309 304 296 293 292 287 284 285 279 273 273 273 268 263 260 260 261 258 257 265 268 266 267 264 256 254 248 249 256 260 260 259 259 257 249 243 240 236 237 237 224 215 210 203 197 199 203 206 211 212 209 212 214 211 212 216 221 228 224 217 209 199 205 223 227 235 245 251 256 254 246 240 238 237 239 243 248 250 248
325 323 323 325 327 327 326 330 330 321 318 313 305 301 292 288 287 283 278 270 268 262 258 263 265 259 260 262 263 266 264 263 263 259 257 256 257 260 265 266 264 264 264 258 253 248 242 242 242 234 227 221 215 210 199 191 200 208 202 196 204 213 219 221 211 207 223 227 223 215 203 193 199 205 205 195 202 227 253 255 246 238 234 233 234 240 246 249
328 327 328 329 331 334 336 341 344 340 338 334 329 328 318 316 310 295 293 276 262 268 270 275 274 260 263 268 261 262 267 270 271 268 262 261 264 267 271 271 267 267 267 263 260 256 248 244 240 235 231 226 222 222 214 202 202 205 198 192 194 200 214 222 206 198 214 221 225 225 214 202 196 202 197 182 188 212 213 219 225 219 225 228 219 221 231 240
336 338 338 337 340 348 353 356 359 4 8 9 8 10 8 7 5 342 337 337 307 292 284 281 283 274 272 274 266 266 273 274 272 272 270 268 270 273 276 278 277 277 274 266 262 258 249 242 238 233 229 223 218 219 220 217 212 204 196 192 191 191 205 216 202 195 205 205 209 222 221 214 211 212 209 198 184 193 206 215 207 193 203 211 203 206 215 225
339 343 344 348 358 3 8 12 16 22 27 32 32 26 25 24 21 13 4 357 342 322 302 293 293 285 278 279 274 269 272 275 276 278 280 281 281 280 279 281 285 286 280 268 257 253 247 241 236 232 228 223 215 213 215 216 215 209 199 195 193 190 196 207 203 197 198 200 204 209 209 207 213 223 225 216 197 190 202 211 200 191 196 199 199 204 208 212
340 348 350 360 13 14 17 16 16 22 23 27 32 29 29 28 25 22 15 6 355 340 326 313 305 298 291 287 285 283 282 283 285 286 287 287 286 285 281 282 287 288 282 268 252 244 242 238 233 229 227 222 216 215 215 214 214 213 204 199 197 191 191 200 201 196 197 206 208 204 195 192 200 209 214 217 213 207 208 209 199 198 202 202 200 201 205 211
347 354 349 4 16 9 9 9 8 12 15 21 26 26 28 27 24 23 18 10 1 349 338 327 314 306 299 293 291 290 288 285 285 284 285 285 283 282 281 282 288 290 284 270 255 244 240 235 229 226 223 218 216 217 215 214 215 214 209 204 201 197 193 197 194 188 197 209 204 197 195 195 198 197 200 214 223 225 229 229 226 223 217 208 203 203 206 213
350 351 344 5 13 2 1 2 2 6 9 20 25 23 26 25 21 19 14 9 3 354 344 333 321 309 298 293 290 287 285 284 284 283 282 281 280 281 282 281 284 290 285 269 258 249 241 236 231 227 222 215 213 214 213 212 214 214 211 206 204 202 197 195 193 189 195 204 198 192 194 198 204 202 201 207 212 219 228 230 231 233 226 210 204 207 213 217
348 348 339 350 2 2 1 358 360 4 7 21 30 26 24 21 18 16 12 7 2 354 348 336 324 313 301 294 290 286 285 284 283 284 284 283 283 282 284 282 282 290 286 267 255 250 244 239 235 232 226 218 213 212 213 215 216 216 214 209 207 207 204 199 196 192 195 199 194 191 192 197 207 209 205 204 200 201 212 218 222 225 223 216 210 210 216 220
343 343 334 325 338 359 0 357 3 7 11 27 32 25 20 17 16 14 10 6 2 355 350 341 330 319 306 299 294 289 289 288 286 287 287 288 287 284 284 283 283 289 286 267 255 251 247 243 238 236 232 223 217 215 214 215 217 217 215 211 209 210 210 206 200 195 197 199 192 190 193 196 207 215 210 208 207 206 211 216 219 220 220 222 218 212 216 222
339 340 333 314 308 340 357 359 8 13 19 28 25 16 13 11 11 11 7 4 2 356 351 345 336 326 313 305 301 295 293 292 290 290 289 288 286 285 286 282 279 285 284 266 256 252 249 245 240 241 238 227 222 219 216 216 218 219 216 212 210 211 210 209 204 198 201 201 192 189 192 195 208 219 212 208 211 216 218 219 219 220 220 222 221 217 219 225
Height
5870 5870 5869 5869 5869 5869 5869 5869 5869 5869 5869 5869 5869 5869 5869 5869 5869 5869 5869 5869 5869 5870 5870 5870 5870 5871 5871 5871 5872 5873 5874 5875 5876 5877 5878 5878 5878 5879 5881 5881 5882 5883 5883 5884 5885 5886 5887 5888 5889 5890 5891 5891 5892 5893 5893 5893 5894 5895 5896 5896 5897 5898 5898 5897 5899 5900 5900 5899 5898 5898 5897 5896 5896 5896 5896 5897 5898 5898 5899 5899 5900 5900 5901 5902 5902 5902 5902 5902
5868 5868 5867 5867 5867 5866 5866 5866 5867 5867 5867 5866 5866 5867 5866 5867 5867 5867 5867 5867 5867 5868 5868 5868 5869 5869 5869 5870 5870 5871 5872 5873 5874 5875 5876 5876 5877 5878 5879 5880 5881 5882 5882 5883 5883 5884 5885 5886 5887 5888 5889 5890 5891 5891 5892 5893 5893 5894 5896 5897 5897 5898 5898 5898 5900 5899 5899 5899 5899 5899 5899 5897 5897 5896 5897 5898 5898 5898 5900 5899 5900 5901 5901 5902 5902 5902 5902 5902
5866 5866 5866 5865 5865 5864 5864 5864 5864 5864 5864 5864 5864 5864 5864 5864 5864 5864 5865 5865 5865 5866 5866 5867 5867 5867 5867 5868 5868 5869 5870 5871 5873 5873 5873 5874 5875 5876 5877 5878 5879 5880 5881 5881 5882 5883 5884 5885 5886 5887 5888 5889 5890 5891 5892 5892 5893 5894 5896 5897 5897 5898 5898 5899 5900 5899 5899 5899 5898 5899 5899 5898 5898 5898 5897 5896 5896 5898 5900 5900 5900 5901 5901 5901 5902 5902 5903 5903
5864 5864 5864 5863 5863 5863 5862 5862 5862 5862 5862 5862 5862 5862 5862 5862 5862 5862 5862 5862 5863 5863 5864 5864 5865 5865 5866 5866 5867 5867 5868 5869 5871 5870 5871 5872 5873 5874 5875 5876 5878 5879 5879 5880 5881 5882 5883 5884 5885 5886 5887 5889 5889 5890 5891 5892 5892 5893 5895 5897 5897 5898 5898 5899 5899 5899 5900 5900 5899 5898 5898 5898 5899 5899 5897 5896 5897 5897 5899 5900 5900 5901 5901 5901 5902 5902 5903 5903
5863 5862 5862 5862 5861 5861 5860 5860 5860 5860 5860 5860 5860 5860 5860 5860 5860 5860 5860 5860 5861 5861 5861 5862 5863 5863 5864 5864 5865 5865 5866 5868 5868 5867 5870 5871 5871 5873 5873 5874 5876 5877 5878 5879 5880 5881 5882 5883 5884 5885 5887 5888 5888 5889 5890 5891 5891 5893 5894 5896 5897 5898 5898 5898 5898 5899 5900 5900 5899 5898 5898 5898 5898 5900 5898 5897 5899 5897 5898 5900 5900 5900 5902 5902 5901 5902 5903 5903
5861 5860 5860 5860 5859 5859 5859 5858 5858 5858 5858 5858 5858 5857 5858 5858 5858 5858 5858 5858 5858 5859 5859 5859 5860 5861 5862 5862 5863 5863 5864 5867 5866 5865 5868 5868 5868 5871 5871 5873 5874 5875 5876 5877 5879 5880 5881 5882 5883 5884 5886 5887 5888 5889 5889 5889 5890 5892 5893 5894 5896 5897 5896 5897 5898 5898 5899 5900 5898 5898 5900 5899 5898 5900 5900 5898 5899 5899 5899 5901 5900 5900 5901 5902 5902 5902 5903 5903
5858 5858 5858 5858 5857 5857 5856 5856 5856 5856 5856 5855 5855 5855 5855 5855 5855 5855 5855 5856 5856 5856 5856 5857 5857 5858 5859 5859 5860 5861 5862 5865 5864 5863 5866 5866 5866 5868 5869 5871 5872 5873 5874 5875 5877 5878 5879 5880 5881 5882 5884 5885 5886 5887 5887 5887 5889 5891 5892 5893 5894 5895 5896 5897 5898 5898 5900 5900 5899 5899 5900 5899 5898 5900 5901 5900 5899 5900 5901 5900 5900 5900 5901 5902 5903 5902 5903 5904
5856 5856 5856 5855 5855 5854 5854 5854 5854 5854 5853 5853 5853 5853 5853 5853 5853 5853 5853 5853 5853 5854 5854 5854 5855 5855 5856 5857 5858 5858 5860 5863 5861 5861 5863 5864 5864 5866 5867 5869 5870 5871 5872 5873 5875 5876 5877 5878 5879 5880 5882 5883 5884 5885 5886 5886 5887 5889 5890 5892 5892 5893 5895 5896 5898 5899 5900 5900 5900 5900 5900 5898 5897 5898 5900 5901 5900 5900 5901 5901 5900 5901 5902 5903 5903 5903 5903 5904
5854 5853 5853 5853 5852 5852 5852 5851 5851 5851 5851 5851 5851 5851 5850 5850 5850 5850 5850 5851 5851 5851 5851 5851 5852 5853 5853 5854 5854 5855 5858 5859 5858 5859 5861 5862 5863 5863 5865 5867 5868 5869 5869 5871 5872 5874 5875 5877 5878 5879 5879 5880 5881 5883 5884 5885 5887 5888 5889 5890 5891 5892 5894 5895 5897 5899 5899 5899 5900 5900 5900 5899 5898 5897 5899 5901 5901 5901 5902 5902 5902 5902 5903 5903 5903 5904 5904 5904
5851 5851 5850 5850 5849 5849 5849 5849 5848 5848 5848 5848 5848 5848 5848 5848 5848 5848 5848 5848 5848 5848 5848 5849 5849 5849 5850 5851 5851 5853 5855 5855 5856 5858 5858 5859 5861 5861 5863 5864 5866 5867 5868 5869 5870 5872 5873 5874 5876 5876 5877 5878 5880 5881 5882 5884 5885 5886 5887 5888 5890 5891 5893 5894 5896 5897 5898 5899 5899 5900 5899 5899 5899 5898 5899 5900 5900 5901 5901 5901 5902 5902 5903 5903 5904 5904 5905 5905
5848 5848 5847 5847 5846 5846 5846 5846 5845 5845 5845 5845 5845 5845 5845 5845 5845 5845 5845 5845 5845 5846 5846 5846 5846 5847 5847 5848 5848 5850 5852 5852 5854 5856 5855 5857 5858 5859 5860 5862 5863 5864 5865 5866 5867 5869 5870 5872 5873 5873 5876 5878 5879 5880 5881 5883 5884 5885 5886 5887 5889 5891 5892 5894 5895 5896 5896 5898 5899 5899 5899 5899 5899 5899 5899 5899 5899 5901 5901 5901 5901 5902 5903 5904 5904 5905 5905 5905
5845 5845 5844 5843 5843 5843 5843 5842 5842 5842 5842 5841 5841 5841 5841 5841 5841 5842 5842 5842 5842 5843 5843 5843 5844 5844 5844 5845 5846 5847 5849 5850 5851 5852 5853 5854 5855 5856 5858 5859 5861 5862 5863 5864 5865 5867 5868 5869 5870 5872 5875 5875 5877 5878 5879 5881 5883 5884 5886 5888 5889 5891 5892 5893 5894 5895 5896 5897 5898 5899 5899 5899 5899 5898 5900 5900 5899 5900 5901 5900 5901 5902 5903 5904 5904 5905 5905 5905
5842 5841 5841 5840 5840 5839 5839 5839 5839 5838 5838 5838 5838 5838 5838 5838 5838 5838 5838 5839 5839 5839 5840 5840 5841 5841 5841 5842 5843 5844 5845 5847 5848 5849 5850 5851 5852 5853 5855 5856 5858 5859 5860 5862 5863 5864 5865 5867 5868 5871 5872 5872 5875 5876 5877 5880 5882 5883 5885 5887 5889 5890 5892 5893 5893 5894 5895 5896 5897 5898 5899 5899 5899 5898 5900 5900 5898 5898 5900 5900 5901 5902 5903 5904 5905 5905 5905 5905
5839 5838 5837 5837 5836 5836 5835 5835 5835 5835 5834 5834 5834 5834 5834 5835 5834 5834 5835 5835 5835 5836 5836 5837 5837 5838 5838 5839 5840 5840 5842 5843 5844 5846 5847 5847 5849 5850 5852 5853 5855 5856 5858 5859 5860 5861 5863 5864 5866 5868 5869 5871 5874 5874 5876 5879 5880 5882 5884 5885 5888 5890 5891 5892 5892 5893 5894 5895 5896 5897 5898 5898 5898 5897 5899 5901 5899 5898 5899 5899 5900 5901 5903 5904 5905 5905 5905 5905
5835 5834 5833 5833 5832 5832 5831 5831 5830 5830 5830 5830 5830 5831 5831 5831 5831 5831 5831 5831 5831 5832 5832 5833 5833 5834 5835 5836 5836 5837 5838 5839 5841 5842 5843 5844 5846 5847 5848 5850 5852 5853 5855 5856 5857 5859 5860 5862 5864 5866 5867 5869 5871 5872 5875 5877 5879 5881 5882 5884 5887 5889 5891 5891 5891 5892 5893 5894 5894 5896 5897 5897 5898 5896 5898 5901 5900 5899 5900 5899 5899 5901 5902 5903 5904 5905 5905 5906
5831 5830 5829 5829 5828 5828 5827 5827 5826 5826 5826 5826 5826 5827 5827 5827 5827 5827 5827 5827 5828 5828 5828 5829 5829 5830 5831 5832 5833 5833 5834 5835 5837 5839 5840 5841 5842 5843 5845 5847 5849 5850 5852 5853 5855 5856 5857 5859 5861 5863 5865 5866 5868 5871 5873 5874 5877 5879 5880 5883 5886 5887 5889 5890 5890 5891 5892 5893 5893 5894 5896 5896 5896 5895 5896 5899 5899 5899 5900 5899 5899 5900 5901 5903 5904 5905 5905 5906
5827 5826 5826 5824 5824 5823 5823 5822 5822 5821 5821 5821 5822 5822 5822 5822 5823 5823 5823 5823 5823 5824 5824 5824 5825 5826 5826 5828 5829 5829 5830 5831 5833 5835 5836 5838 5838 5840 5842 5843 5845 5847 5848 5850 5851 5853 5854 5856 5858 5860 5862 5864 5866 5868 5869 5871 5876 5879 5880 5882 5884 5886 5888 5889 5889 5890 5890 5891 5892 5892 5894 5895 5895 5894 5895 5898 5898 5898 5899 5899 5898 5899 5900 5902 5903 5905 5905 5905
5823 5822 5821 5820 5819 5819 5818 5818 5817 5817 5816 5816 5817 5817 5817 5817 5817 5818 5819 5819 5819 5819 5819 5820 5821 5821 5821 5824 5825 5825 5826 5827 5829 5831 5832 5834 5835 5837 5839 5839 5841 5843 5845 5846 5848 5850 5851 5853 5855 5857 5859 5861 5864 5866 5868 5873 5877 5878 5878 5880 5882 5884 5886 5887 5890 5890 5888 5889 5891 5891 5892 5893 5893 5893 5894 5897 5898 5897 5898 5897 5897 5899 5900 5901 5903 5904 5905 5905
5818 5817 5817 5816 5815 5814 5814 5813 5812 5812 5812 5812 5812 5811 5812 5812 5812 5814 5813 5813 5814 5814 5814 5815 5816 5815 5816 5820 5821 5820 5822 5823 5824 5826 5828 5830 5831 5833 5835 5836 5837 5839 5841 5843 5845 5847 5848 5850 5851 5853 5857 5861 5864 5866 5869 5872 5873 5873 5874 5877 5880 5881 5883 5885 5889 5890 5888 5887 5889 5890 5891 5891 5892 5892 5893 5895 5896 5896 5896 5896 5897 5898 5899 5901 5902 5903 5904 5905
5813 5812 5812 5811 5810 5809 5809 5808 5807 5807 5807 5806 5806 5806 5807 5806 5806 5808 5808 5807 5808 5808 5808 5810 5811 5810 5811 5815 5816 5815 5817 5819 5819 5821 5824 5825 5827 5829 5830 5832 5833 5835 5837 5839 5842 5843 5845 5846 5847 5851 5857 5861 5863 5864 5866 5868 5868 5868 5871 5874 5876 5878 5880 5883 5886 5889 5889 5887 5887 5888 5889 5890 5891 5891 5892 5893 5894 5894 5895 5897 5897 5897 5899 5900 5901 5903 5903 5904
5809 5808 5807 5806 5805 5804 5804 5803 5802 5802 5802 5801 5800 5800 5801 5800 5800 5802 5803 5801 5802 5803 5802 5804 5805 5805 5806 5809 5810 5810 5811 5813 5814 5816 5819 5821 5823 5824 5826 5828 5829 5831 5834 5836 5838 5839 5840 5841 5844 5851 5856 5858 5858 5859 5862 5863 5864 5865 5867 5869 5872 5874 5877 5880 5884 5887 5889 5887 5887 5887 5887 5888 5889 5890 5891 5892 5893 5893 5894 5896 5896 5897 5899 5900 5901 5902 5902 5903
5804 5803 5802 5801 5800 5799 5798 5798 5797 5796 5796 5796 5795 5794 5795 5795 5795 5796 5797 5796 5796 5797 5796 5798 5799 5799 5801 5802 5803 5805 5805 5807 5809 5811 5813 5816 5818 5818 5821 5824 5825 5827 5829 5831 5833 5834 5836 5838 5843 5850 5853 5853 5854 5856 5858 5859 5861 5862 5864 5866 5868 5871 5875 5878 5881 5884 5887 5887 5886 5887 5886 5886 5887 5887 5890 5891 5892 5893 5894 5895 5895 5896 5898 5898 5900 5901 5901 5903
5800 5799 5797 5796 5795 5794 5793 5792 5792 5791 5790 5790 5790 5789 5789 5790 5790 5790 5790 5790 5791 5791 5791 5792 5793 5794 5795 5796 5797 5798 5800 5801 5802 5805 5809 5810 5811 5812 5816 5819 5820 5822 5825 5826 5828 5830 5832 5836 5842 5847 5848 5849 5851 5853 5854 5856 5858 5859 5862 5865 5866 5869 5873 5877 5880 5882 5885 5886 5885 5885 5885 5885 5885 5884 5887 5889 5891 5891 5891 5892 5893 5896 5897 5897 5899 5901 5901 5902
5795 5794 5793 5791 5790 5789 5788 5787 5787 5787 5786 5786 5785 5785 5785 5785 5785 5785 5785 5785 5785 5787 5787 5787 5789 5789 5790 5791 5792 5793 5795 5796 5795 5800 5804 5803 5804 5807 5810 5814 5815 5817 5819 5822 5824 5825 5828 5834 5839 5842 5842 5844 5847 5849 5851 5853 5856 5857 5860 5863 5865 5868 5871 5874 5879 5882 5883 5884 5884 5884 5884 5884 5883 5883 5883 5885 5889 5890 5889 5889 5891 5894 5896 5897 5899 5901 5901 5901
5791 5789 5788 5787 5785 5784 5784 5783 5783 5783 5782 5782 5782 5782 5782 5782 5782 5781 5781 5781 5782 5784 5784 5783 5785 5785 5786 5787 5788 5789 5790 5790 5791 5794 5798 5798 5799 5802 5804 5807 5810 5812 5814 5817 5820 5821 5825 5830 5835 5836 5837 5840 5842 5845 5848 5850 5853 5854 5858 5861 5862 5864 5867 5870 5876 5879 5879 5881 5883 5882 5882 5883 5883 5883 5883 5883 5885 5887 5887 5887 5888 5892 5894 5896 5899 5900 5900 5901
5787 5786 5784 5783 5781 5781 5781 5781 5780 5779 5779 5780 5779 5780 5780 5779 5780 5779 5779 5779 5779 5781 5781 5781 5782 5781 5783 5784 5784 5785 5785 5786 5787 5789 5792 5793 5794 5796 5798 5802 5805 5807 5810 5812 5814 5817 5820 5825 5830 5831 5832 5836 5838 5841 5844 5847 5849 5850 5854 5859 5859 5861 5864 5866 5870 5873 5874 5878 5882 5880 5879 5882 5882 5882 5884 5884 5883 5885 5887 5885 5886 5890 5892 5894 5896 5898 5899 5900
5784 5783 5781 5780 5779 5778 5778 5778 5778 5777 5777 5777 5777 5777 5777 5777 5778 5777 5778 5777 5776 5778 5779 5779 5779 5778 5779 5781 5781 5782 5781 5782 5783 5784 5787 5789 5789 5791 5794 5796 5799 5802 5804 5806 5808 5812 5815 5820 5825 5826 5828 5831 5833 5836 5840 5843 5845 5847 5852 5856 5857 5858 5860 5862 5864 5866 5869 5873 5877 5878 5876 5876 5876 5879 5883 5884 5883 5882 5885 5885 5884 5887 5890 5893 5894 5896 5899 5900
5782 5780 5778 5777 5777 5776 5775 5775 5775 5775 5775 5775 5775 5775 5775 5775 5775 5775 5775 5774 5772 5774 5775 5776 5776 5775 5776 5777 5778 5779 5779 5779 5779 5780 5783 5784 5784 5787 5789 5790 5793 5796 5798 5800 5803 5807 5810 5815 5820 5822 5824 5826 5829 5833 5837 5839 5841 5845 5850 5852 5853 5854 5855 5858 5859 5861 5864 5867 5870 5873 5873 5870 5871 5875 5879 5881 5882 5881 5882 5884 5884 5885 5888 5892 5894 5896 5899 5900
5779 5777 5776 5775 5774 5774 5773 5772 5772 5772 5772 5772 5772 5772 5772 5772 5772 5772 5772 5771 5770 5771 5772 5772 5772 5772 5773 5774 5774 5776 5776 5776 5776 5777 5780 5780 5780 5783 5784 5784 5788 5790 5791 5793 5796 5800 5805 5810 5815 5816 5818 5822 5827 5829 5832 5836 5838 5842 5846 5847 5849 5850 5850 5853 5855 5858 5861 5861 5862 5867 5869 5868 5870 5873 5875 5877 5879 5880 5881 5883 5884 5884 5885 5889 5893 5895 5897 5899
5776 5775 5774 5773 5772 5771 5771 5770 5769 5769 5769 5769 5769 5768 5768 5768 5768 5769 5769 5768 5769 5769 5769 5769 5769 5770 5771 5770 5771 5773 5773 5773 5773 5775 5776 5776 5777 5779 5779 5780 5784 5786 5787 5788 5791 5795 5799 5802 5806 5809 5812 5818 5822 5824 5829 5832 5834 5837 5841 5843 5845 5845 5845 5848 5851 5854 5855 5853 5856 5860 5863 5866 5868 5870 5873 5875 5876 5879 5881 5881 5882 5884 5882 5884 5891 5894 5895 5898
5774 5773 5772 5771 5770 5769 5769 5768 5767 5766 5766 5766 5765 5765 5765 5765 5766 5766 5766 5766 5767 5767 5766 5766 5767 5767 5768 5768 5768 5770 5771 5770 5771 5773 5773 5774 5775 5775 5776 5777 5779 5779 5782 5785 5788 5793 5795 5796 5800 5804 5807 5812 5815 5818 5823 5825 5826 5832 5837 5840 5841 5840 5842 5845 5847 5849 5848 5848 5854 5858 5861 5863 5863 5867 5872 5874 5875 5877 5880 5880 5881 5883 5883 5882 5887 5892 5894 5896
5771 5771 5770 5768 5768 5767 5766 5766 5765 5764 5763 5762 5762 5762 5762 5762 5763 5763 5763 5764 5764 5763 5763 5765 5765 5764 5765 5766 5766 5766 5767 5767 5769 5770 5770 5772 5773 5773 5773 5773 5772 5774 5778 5782 5785 5789 5792 5794 5798 5801 5803 5806 5809 5813 5817 5818 5822 5829 5833 5835 5836 5837 5839 5841 5844 5845 5844 5848 5854 5858 5860 5859 5859 5866 5871 5872 5873 5875 5878 5881 5880 5881 5882 5881 5884 5890 5891 5892
5769 5768 5767 5766 5765 5765 5764 5763 5762 5761 5759 5759 5758 5758 5759 5759 5760 5761 5761 5760 5760 5761 5762 5762 5763 5763 5763 5764 5763 5763 5765 5765 5766 5768 5768 5769 5771 5771 5770 5768 5769 5772 5776 5778 5779 5784 5788 5790 5794 5797 5799 5801 5803 5808 5813 5815 5820 5826 5827 5830 5832 5832 5834 5837 5840 5842 5843 5847 5853 5856 5856 5854 5856 5863 5867 5869 5872 5873 5877 5882 5881 5879 5879 5879 5882 5887 5888 5889
5767 5766 5765 5764 5763 5762 5761 5760 5759 5758 5756 5755 5755 5755 5755 5757 5758 5758 5757 5756 5757 5759 5759 5759 5760 5760 5761 5761 5759 5760 5763 5762 5762 5765 5766 5767 5768 5769 5767 5764 5767 5771 5772 5773 5775 5779 5784 5787 5791 5794 5796 5798 5799 5803 5809 5814 5818 5820 5822 5825 5827 5829 5832 5836 5839 5840 5843 5847 5850 5852 5851 5850 5853 5858 5863 5867 5870 5872 5876 5880 5880 5879 5878 5878 5880 5884 5885 5886
5765 5764 5763 5762 5761 5759 5758 5757 5756 5755 5754 5752 5752 5752 5753 5754 5754 5753 5753 5753 5755 5756 5756 5756 5758 5757 5758 5758 5757 5758 5760 5758 5758 5761 5764 5765 5766 5765 5762 5761 5766 5768 5768 5771 5773 5774 5777 5783 5789 5793 5794 5796 5797 5800 5805 5810 5814 5815 5817 5820 5823 5826 5829 5834 5837 5840 5843 5846 5847 5847 5846 5848 5852 5856 5860 5864 5865 5868 5872 5876 5878 5878 5877 5876 5877 5880 5882 5884
5763 5762 5760 5759 5758 5757 5755 5754 5753 5752 5751 5750 5749 5749 5750 5751 5750 5749 5749 5751 5752 5753 5753 5754 5754 5755 5755 5755 5754 5754 5755 5756 5755 5757 5761 5762 5763 5761 5759 5761 5764 5765 5766 5768 5770 5771 5773 5776 5781 5786 5789 5791 5794 5797 5799 5804 5810 5813 5813 5815 5820 5825 5828 5832 5835 5837 5840 5841 5843 5845 5845 5847 5850 5852 5856 5859 5862 5865 5867 5871 5877 5877 5874 5873 5874 5878 5880 5880
5761 5760 5758 5757 5756 5754 5753 5751 5750 5749 5748 5747 5747 5747 5747 5747 5747 5747 5747 5748 5749 5750 5751 5751 5750 5751 5752 5755 5754 5748 5749 5754 5753 5753 5757 5759 5759 5758 5757 5758 5760 5761 5764 5765 5767 5768 5768 5771 5776 5778 5781 5785 5790 5794 5794 5798 5805 5810 5811 5814 5820 5822 5823 5827 5830 5833 5836 5837 5839 5843 5845 5846 5847 5848 5852 5855 5857 5861 5863 5869 5875 5877 5873 5870 5871 5876 5879 5878
5759 5758 5756 5755 5754 5752 5750 5749 5748 5747 5746 5746 5745 5745 5745 5744 5744 5745 5745 5746 5746 5747 5748 5747 5746 5747 5750 5755 5752 5745 5746 5752 5751 5750 5754 5756 5755 5753 5753 5754 5755 5757 5761 5763 5765 5765 5765 5770 5775 5776 5777 5780 5785 5789 5791 5792 5798 5804 5808 5813 5816 5818 5819 5822 5824 5827 5832 5834 5837 5841 5844 5846 5846 5846 5849 5850 5853 5857 5860 5865 5869 5872 5872 5868 5868 5874 5878 5877
5756 5756 5754 5753 5752 5750 5748 5747 5746 5745 5744 5744 5743 5742 5742 5742 5742 5743 5743 5743 5743 5744 5744 5744 5743 5744 5748 5749 5747 5745 5745 5746 5747 5749 5751 5751 5750 5748 5749 5751 5752 5754 5758 5760 5762 5763 5763 5765 5769 5773 5774 5776 5780 5784 5788 5791 5793 5798 5804 5806 5808 5812 5816 5818 5820 5824 5828 5832 5836 5840 5842 5845 5847 5848 5848 5847 5849 5852 5856 5861 5863 5866 5869 5867 5867 5873 5876 5877
5753 5752 5752 5750 5749 5748 5746 5745 5743 5742 5742 5741 5741 5740 5739 5739 5739 5740 5740 5740 5740 5740 5740 5741 5741 5742 5743 5743 5743 5744 5741 5739 5744 5748 5746 5747 5746 5745 5745 5746 5748 5751 5754 5757 5759 5759 5759 5758 5762 5770 5772 5771 5775 5779 5784 5790 5792 5794 5799 5801 5802 5806 5811 5815 5816 5820 5825 5829 5834 5838 5841 5843 5846 5849 5849 5845 5845 5847 5852 5857 5859 5861 5865 5865 5865 5869 5873 5876
5751 5749 5749 5748 5747 5745 5744 5743 5741 5740 5739 5738 5738 5738 5737 5736 5736 5737 5737 5736 5737 5737 5737 5738 5738 5738 5739 5739 5738 5740 5738 5738 5742 5744 5743 5743 5741 5739 5740 5741 5744 5747 5749 5753 5753 5750 5751 5751 5755 5763 5766 5766 5770 5774 5779 5785 5789 5793 5796 5799 5801 5803 5807 5812 5813 5816 5820 5825 5830 5835 5840 5843 5844 5846 5847 5845 5843 5844 5847 5853 5856 5858 5861 5863 5863 5865 5869 5872
5749 5748 5746 5745 5744 5743 5742 5741 5739 5738 5737 5736 5735 5735 5734 5734 5734 5734 5734 5734 5734 5735 5734 5733 5734 5735 5735 5735 5735 5736 5736 5736 5737 5738 5740 5740 5735 5734 5735 5736 5740 5742 5743 5745 5744 5742 5746 5749 5752 5757 5760 5760 5763 5765 5768 5773 5780 5785 5790 5795 5801 5803 5805 5807 5810 5815 5818 5820 5826 5831 5835 5840 5842 5843 5844 5844 5845 5844 5842 5845 5850 5854 5858 5861 5861 5862 5864 5866
5747 5746 5745 5744 5742 5741 5740 5739 5737 5736 5735 5734 5733 5733 5732 5732 5732 5731 5731 5732 5731 5731 5730 5729 5731 5732 5731 5731 5733 5732 5731 5732 5733 5734 5736 5734 5730 5730 5730 5730 5734 5737 5736 5736 5737 5740 5746 5747 5748 5753 5756 5758 5760 5762 5764 5767 5770 5773 5776 5783 5790 5797 5803 5805 5807 5814 5817 5818 5822 5826 5830 5835 5839 5840 5841 5843 5846 5845 5842 5842 5844 5850 5855 5858 5860 5862 5862 5862
5746 5744 5744 5742 5741 5740 5739 5737 5736 5735 5734 5733 5732 5731 5730 5730 5730 5729 5729 5729 5729 5728 5727 5727 5728 5729 5728 5729 5731 5729 5727 5729 5730 5729 5730 5729 5726 5726 5726 5724 5727 5729 5729 5729 5732 5737 5741 5740 5740 5745 5749 5753 5759 5763 5765 5765 5764 5764 5769 5774 5780 5788 5797 5801 5803 5808 5812 5816 5820 5822 5826 5831 5835 5836 5838 5840 5841 5842 5842 5841 5841 5847 5852 5855 5858 5860 5860 5860
5744 5743 5742 5741 5740 5739 5738 5736 5735 5734 5733 5732 5731 5730 5729 5729 5728 5727 5726 5726 5726 5726 5726 5725 5726 5726 5726 5726 5727 5727 5725 5725 5726 5724 5725 5725 5722 5722 5722 5718 5718 5720 5721 5723 5726 5729 5731 5731 5732 5736 5740 5745 5752 5757 5758 5758 5757 5760 5767 5771 5775 5780 5787 5793 5797 5799 5803 5810 5816 5819 5822 5828 5832 5834 5835 5837 5838 5839 5838 5836 5838 5844 5849 5851 5853 5854 5856 5859
5744 5743 5741 5740 5739 5738 5737 5736 5735 5733 5732 5731 5730 5730 5729 5728 5727 5726 5725 5724 5724 5724 5724 5723 5723 5724 5723 5723 5724 5724 5723 5722 5722 5720 5719 5719 5718 5716 5716 5714 5713 5713 5713 5716 5718 5719 5721 5723 5725 5728 5731 5737 5743 5745 5745 5748 5751 5755 5761 5764 5767 5770 5776 5784 5790 5793 5798 5804 5809 5813 5818 5824 5828 5830 5832 5834 5834 5832 5831 5831 5833 5838 5841 5843 5847 5850 5854 5857
5743 5742 5741 5740 5739 5738 5737 5736 5734 5733 5732 5731 5730 5729 5728 5727 5726 5725 5724 5723 5723 5722 5722 5721 5721 5721 5720 5720 5719 5719 5719 5718 5717 5716 5714 5714 5713 5711 5710 5710 5709 5707 5707 5709 5710 5711 5712 5714 5718 5722 5725 5731 5737 5738 5739 5743 5746 5750 5755 5759 5761 5761 5763 5767 5772 5780 5790 5796 5801 5808 5814 5817 5818 5820 5822 5823 5823 5823 5823 5825 5828 5830 5832 5837 5843 5847 5850 5852
5742 5741 5740 5739 5738 5737 5737 5735 5734 5733 5732 5731 5730 5729 5728 5727 5726 5724 5723 5723 5722 5721 5720 5719 5719 5718 5717 5717 5716 5715 5714 5714 5713 5712 5711 5710 5710 5708 5707 5706 5704 5702 5701 5701 5702 5704 5704 5705 5710 5714 5717 5724 5730 5732 5734 5737 5738 5743 5748 5753 5757 5757 5757 5759 5764 5772 5780 5786 5793 5801 5807 5808 5808 5810 5812 5813 5815 5818 5819 5822 5825 5827 5830 5836 5840 5842 5844 5848
5741 5741 5740 5739 5738 5737 5736 5735 5734 5733 5732 5730 5729 5728 5727 5726 5725 5724 5723 5722 5721 5720 5719 5718 5717 5716 5715 5714 5713 5712 5711 5710 5709 5709 5708 5707 5707 5706 5704 5703 5701 5698 5696 5696 5697 5697 5696 5699 5704 5706 5709 5715 5719 5722 5724 5725 5727 5733 5739 5745 5750 5753 5754 5757 5762 5768 5772 5778 5785 5792 5797 5801 5803 5805 5806 5806 5808 5812 5815 5817 5820 5823 5827 5832 5833 5833 5836 5840
5741 5740 5739 5739 5738 5737 5736 5735 5734 5733 5731 5730 5729 5728 5727 5726 5725 5723 5722 5721 5720 5719 5718 5717 5715 5714 5713 5711 5710 5709 5708 5707 5706 5705 5704 5704 5703 5702 5700 5699 5697 5695 5693 5692 5693 5692 5692 5695 5697 5699 5702 5706 5710 5714 5718 5722 5725 5729 5734 5739 5744 5748 5751 5754 5759 5764 5769 5773 5780 5786 5791 5796 5798 5799 5800 5799 5801 5804 5806 5809 5813 5817 5824 5827 5827 5828 5830 5833
5740 5739 5739 5738 5737 5737 5736 5735 5734 5732 5731 5729 5728 5727 5727 5725 5724 5723 5722 5720 5719 5718 5716 5715 5714 5712 5711 5709 5708 5706 5705 5704 5703 5702 5701 5700 5699 5698 5696 5694 5693 5692 5690 5689 5689 5688 5690 5692 5693 5694 5696 5700 5705 5710 5714 5719 5722 5722 5726 5734 5740 5745 5750 5753 5757 5762 5766 5770 5777 5782 5786 5792 5793 5792 5793 5795 5796 5795 5796 5801 5808 5814 5819 5822 5824 5826 5827 5829
5740 5739 5738 5738 5737 5736 5735 5734 5733 5732 5730 5729 5728 5727 5726 5725 5724 5722 5721 5719 5718 5717 5715 5713 5712 5710 5708 5706 5705 5703 5702 5700 5699 5698 5697 5696 5695 5693 5692 5690 5689 5688 5687 5686 5685 5686 5687 5688 5690 5690 5691 5694 5700 5704 5708 5712 5712 5713 5721 5732 5739 5742 5746 5749 5753 5758 5762 5765 5769 5772 5779 5786 5786 5783 5786 5789 5789 5790 5794 5799 5803 5808 5813 5816 5820 5825 5828 5829